Find Starlink 3246

NORAD ID: 49732 Int'l Des: 2021-115 Owner: SPXS Country: US Constellation: starlink operational
LEOCIRCULAR

現在のビュー

3D地球を読み込み中...

About Starlink 3246

Starlink 3246 (NORAD 49732) is a starlink constellation satellite (v1.5) launched Dec 2, 2021 by SPXS of US. It operates in LEO, CIRCULAR orbit with a mass of 290.00 kg.

Starlink 3246について

説明を読み込み中...

次回通過

Passes for default location (London). Set your location on the main map for personalized predictions.

高度履歴

Loading altitude history...

軌道要素

1 49732U 21115J 26170.94520619 .00001301 00000-0 99821-4 0 9995
2 49732 53.1607 60.1209 0001845 61.4741 298.6436 15.08844722250824
Epoch: Jun 19, 2026 • Age: 17 hours

現在のステータス

高度 540.3 km
速度 7.60 km/s
衛星直下点 21.99°N, 81.85°E
打ち上げ日 Dec 2, 2021
運用期間 4.5 years
タイプ internet

技術仕様

分類 Payload
質量 290.00 kg
乾燥質量 270.00 kg
総質量 290.00 kg
長さ 0.20 m
直径 2.80 m
スパン 9.00 m
形状 Box + pan
製造者 SPXS
バスタイプ Starlink
フェーズステータス In Orbit
所有者/国 SPXS/US

Most Searched